Volver al catálogo

STARLINK-36110

ActivoComunicacionesVLEO
NORAD 66945·PAYLOAD·🇺🇸 United States

Lanzado Dec 7, 2025 desde Vandenberg Space Force Base

Loading…

Próximos Pases (próximas 24 horas)

TLE

ActualizadoSource: CelesTrak SupGP

Época: Sep 14, 2026, 23:13 UTC

1 66945C 25286W   26257.96784722 -.00048487  00000+0 -14310-2 0  2570
2 66945  53.1585 195.6785 0001415  81.1975  33.0050 15.34448334    13

Sigue STARLINK-36110 en tiempo real con AllMySat

Download on the App Store